This is the latest recevied weather packets stored in our database for station/object KE0LFX. If no packets are shown the sender has not sent any weather packets the latest 1 day(s).
| Time | Temp. | Humidity | Pressure | Rain* | Wind** | Luminosity | Snow |
|---|---|---|---|---|---|---|---|
| 1778034847 | 11.11° C | 46% | 1015.7 hPa | 0 mm | - | 0 W/m² | - |
| 1778033939 | 11.11° C | 45% | 1015.4 hPa | 0 mm | - | 0 W/m² | - |
| 1778033636 | 11.11° C | 44% | 1015.3 hPa | 0 mm | - | 0 W/m² | - |
| 1778033333 | 11.67° C | 44% | 1015.2 hPa | 0 mm | - | 0 W/m² | - |
| 1778033031 | 11.67° C | 43% | 1015.2 hPa | 0 mm | - | 0 W/m² | - |
| 1778032728 | 11.67° C | 43% | 1015 hPa | 0 mm | - | 0 W/m² | - |
| 1778032122 | 11.67° C | 42% | 1015 hPa | 0 mm | - | 0 W/m² | - |
| 1778031819 | 12.22° C | 43% | 1014.6 hPa | 0 mm | - | 0 W/m² | - |
| 1778031515 | 12.22° C | 42% | 1014.5 hPa | 0 mm | - | 0 W/m² | - |
| 1778031213 | 12.22° C | 42% | 1014.6 hPa | 0 mm | - | 0 W/m² | - |
| 1778030909 | 12.78° C | 43% | 1014.2 hPa | 0 mm | - | 0 W/m² | - |
| 1778030304 | 12.78° C | 43% | 1014.1 hPa | 0 mm | - | 0 W/m² | - |
| 1778030000 | 12.78° C | 42% | 1014.1 hPa | 0 mm | - | 0 W/m² | - |
| 1778029698 | 12.78° C | 42% | 1014.1 hPa | 0 mm | - | 0 W/m² | - |
| 1778029092 | 12.78° C | 41% | 1014 hPa | 0 mm | - | 3 W/m² | - |
| 1778028789 | 13.33° C | 41% | 1013.9 hPa | 0 mm | - | 5 W/m² | - |
| 1778028485 | 13.33° C | 41% | 1013.8 hPa | 0 mm | - | 7 W/m² | - |
| 1778028183 | 13.33° C | 40% | 1014 hPa | 0 mm | - | 9 W/m² | - |
| 1778026968 | 13.33° C | 39% | 1013.6 hPa | 0 mm | - | 18 W/m² | - |
| 1778026058 | 13.89° C | 37% | 1013.6 hPa | 0 mm | - | 46 W/m² | - |
| 1778024847 | 14.44° C | 36% | 1013.5 hPa | 0 mm | - | 81 W/m² | - |
| 1778023030 | 14.44° C | 36% | 1013.2 hPa | 0 mm | - | 106 W/m² | - |
| 1778022729 | 14.44° C | 37% | 1013.1 hPa | 0 mm | - | 113 W/m² | - |
| 1778021516 | 15° C | 35% | 1013 hPa | 0 mm | - | 91 W/m² | - |
| 1778020910 | 15° C | 37% | 1013.1 hPa | 0 mm | - | 103 W/m² | - |
* Rain latest hour (hover to see other rain measurements)
** Current wind speed in m/s (hover to see current wind gust speed)